SWA1080 KLAX-KSJC

Flight info

Callsign SWA1080
Flight time 0h 49m
Altitude 34000
Route SUMMR2 SCTRR TROXX SILCN6
Aircraft B738/M-SDE2E3FGHIRWXY/LB1

Departure

Time 2026-04-21 01:35
Airport Los Angeles International Airport (KLAX)

Arrival

Time 2026-04-21 02:24
Airport Norman Y. Mineta San Jose International Airport (KSJC)
Time Latitude Longitude Altitude Speed Heading
2026-04-21 01:18 33.94732 -118.40064 121 ft 0 kts 263°
2026-04-21 01:29 33.94733 -118.40054 125 ft 4 kts 269°
2026-04-21 01:29 33.94728 -118.40025 120 ft 4 kts 314°
2026-04-21 01:29 33.94708 -118.40014 121 ft 2 kts 360°
2026-04-21 01:29 33.94707 -118.40014 121 ft 1 kts
2026-04-21 01:32 33.94730 -118.40013 121 ft 7 kts
2026-04-21 01:32 33.94789 -118.40008 124 ft 10 kts
2026-04-21 01:32 33.94845 -118.40046 124 ft 10 kts 300°
2026-04-21 01:33 33.94902 -118.40077 121 ft 10 kts 21°
2026-04-21 01:33 33.94929 -118.40009 125 ft 7 kts 88°
2026-04-21 01:33 33.94940 -118.39951 123 ft 7 kts 64°
2026-04-21 01:33 33.94949 -118.39934 122 ft 0 kts 56°
2026-04-21 01:34 33.94949 -118.39933 122 ft 0 kts 54°
2026-04-21 01:34 33.94969 -118.39916 122 ft 7 kts 25°
2026-04-21 01:34 33.95028 -118.39920 123 ft 8 kts 331°
2026-04-21 01:34 33.95035 -118.40027 123 ft 23 kts 262°
2026-04-21 01:35 33.94992 -118.40423 125 ft 81 kts 262°
2026-04-21 01:35 33.94898 -118.41353 126 ft 139 kts 262°
2026-04-21 01:35 33.94772 -118.42610 531 ft 158 kts 263°
2026-04-21 01:35 33.94663 -118.43976 1168 ft 165 kts 264°
2026-04-21 01:36 33.94562 -118.45410 1760 ft 182 kts 265°
2026-04-21 01:36 33.94466 -118.46988 2332 ft 196 kts 267°
2026-04-21 01:36 33.94402 -118.48691 2612 ft 219 kts 267°
2026-04-21 01:36 33.94325 -118.50592 2991 ft 235 kts 266°
2026-04-21 01:37 33.94195 -118.52653 3422 ft 251 kts 264°
2026-04-21 01:37 33.93992 -118.54768 4057 ft 262 kts 262°
2026-04-21 01:37 33.93781 -118.56966 4700 ft 265 kts 262°
2026-04-21 01:37 33.93588 -118.59176 5010 ft 268 kts 263°
2026-04-21 01:38 33.93405 -118.61402 5032 ft 266 kts 262°
2026-04-21 01:38 33.93225 -118.63651 5251 ft 272 kts 263°
2026-04-21 01:38 33.93046 -118.65929 6108 ft 274 kts 262°
2026-04-21 01:38 33.92869 -118.68213 7011 ft 274 kts 262°
2026-04-21 01:39 33.92691 -118.70511 7838 ft 277 kts 262°
2026-04-21 01:39 33.92511 -118.72819 8672 ft 279 kts 261°
2026-04-21 01:39 33.92329 -118.75157 9476 ft 283 kts 261°
2026-04-21 01:39 33.92145 -118.77528 10285 ft 285 kts 261°
2026-04-21 01:40 33.91950 -118.79980 10587 ft 307 kts 261°
2026-04-21 01:40 33.91741 -118.82588 10932 ft 324 kts 261°
2026-04-21 01:40 33.91647 -118.85334 11605 ft 331 kts 267°
2026-04-21 01:40 33.91751 -118.88107 12456 ft 332 kts 269°
2026-04-21 01:41 33.91884 -118.90887 13299 ft 333 kts 269°
2026-04-21 01:41 33.91996 -118.93676 14090 ft 336 kts 268°
2026-04-21 01:41 33.92089 -118.96494 14845 ft 339 kts 268°
2026-04-21 01:41 33.92173 -118.99342 15598 ft 342 kts 268°
2026-04-21 01:42 33.92603 -119.02200 16306 ft 356 kts 285°
2026-04-21 01:42 33.93774 -119.04877 17049 ft 366 kts 296°
2026-04-21 01:42 33.95151 -119.07482 17755 ft 371 kts 297°
2026-04-21 01:42 33.96564 -119.10109 18403 ft 376 kts 296°
2026-04-21 01:43 33.97976 -119.12784 19008 ft 380 kts 296°
2026-04-21 01:43 33.99377 -119.15483 19655 ft 382 kts 296°
2026-04-21 01:43 34.00831 -119.18193 20276 ft 389 kts 302°
2026-04-21 01:43 34.02832 -119.20410 20857 ft 404 kts 319°
2026-04-21 01:44 34.05147 -119.22355 21494 ft 407 kts 320°
2026-04-21 01:44 34.07490 -119.24311 22070 ft 411 kts 320°
2026-04-21 01:44 34.09846 -119.26290 22631 ft 415 kts 320°
2026-04-21 01:44 34.12217 -119.28300 23207 ft 419 kts 319°
2026-04-21 01:45 34.14606 -119.30340 23750 ft 421 kts 319°
2026-04-21 01:45 34.16998 -119.32394 24253 ft 423 kts 319°
2026-04-21 01:45 34.19404 -119.34467 24780 ft 425 kts 319°
2026-04-21 01:45 34.21806 -119.36539 25300 ft 426 kts 319°
2026-04-21 01:46 34.24224 -119.38627 25773 ft 429 kts 319°
2026-04-21 01:46 34.26631 -119.40709 26228 ft 431 kts 319°
2026-04-21 01:46 34.29073 -119.42820 26709 ft 433 kts 319°
2026-04-21 01:46 34.31525 -119.44942 27185 ft 435 kts 319°
2026-04-21 01:47 34.33978 -119.47065 27711 ft 434 kts 319°
2026-04-21 01:47 34.36435 -119.49192 28394 ft 431 kts 319°
2026-04-21 01:47 34.38861 -119.51293 29103 ft 426 kts 319°
2026-04-21 01:47 34.41254 -119.53370 29757 ft 424 kts 318°
2026-04-21 01:48 34.43620 -119.55509 30287 ft 422 kts 316°
2026-04-21 01:48 34.45925 -119.57674 30807 ft 419 kts 315°
2026-04-21 01:48 34.48211 -119.59850 31217 ft 420 kts 315°
2026-04-21 01:48 34.50493 -119.62031 31583 ft 422 kts 315°
2026-04-21 01:49 34.52827 -119.64257 31961 ft 423 kts 315°
2026-04-21 01:49 34.55152 -119.66466 31981 ft 423 kts 315°
2026-04-21 01:49 34.59752 -119.70822 32005 ft 423 kts 315°
2026-04-21 01:50 34.64394 -119.75215 32007 ft 423 kts 315°
2026-04-21 01:50 34.66713 -119.77410 32120 ft 421 kts 315°
2026-04-21 01:50 34.69020 -119.79595 32357 ft 420 kts 315°
2026-04-21 01:51 34.71325 -119.81783 32608 ft 423 kts 315°
2026-04-21 01:51 34.73653 -119.83995 32845 ft 424 kts 315°
2026-04-21 01:51 34.75971 -119.86197 33077 ft 423 kts 315°
2026-04-21 01:51 34.78285 -119.88395 33319 ft 422 kts 315°
2026-04-21 01:52 34.80593 -119.90591 33537 ft 421 kts 314°
2026-04-21 01:52 34.85161 -119.94940 33999 ft 420 kts 314°
2026-04-21 01:53 34.89813 -119.99384 33995 ft 426 kts 314°
2026-04-21 01:53 34.94536 -120.03902 34026 ft 439 kts 315°
2026-04-21 01:54 34.99410 -120.08569 34004 ft 450 kts 315°
2026-04-21 01:54 35.04406 -120.13356 34016 ft 463 kts 316°
2026-04-21 01:55 35.09523 -120.18263 34023 ft 472 kts 316°
2026-04-21 01:55 35.14657 -120.23192 34017 ft 472 kts 316°
2026-04-21 01:56 35.19836 -120.28118 34014 ft 472 kts 317°
2026-04-21 01:56 35.25109 -120.32912 34019 ft 473 kts 317°
2026-04-21 01:57 35.30400 -120.37708 34051 ft 472 kts 317°
2026-04-21 01:57 35.35657 -120.42515 34036 ft 472 kts 317°
2026-04-21 01:58 35.40870 -120.47304 34025 ft 471 kts 317°
2026-04-21 01:58 35.46111 -120.52126 34049 ft 470 kts 317°
2026-04-21 01:59 35.51346 -120.56949 34044 ft 471 kts 317°
2026-04-21 01:59 35.56737 -120.61564 34035 ft 475 kts 321°
2026-04-21 02:00 35.62347 -120.65868 33845 ft 478 kts 322°
2026-04-21 02:00 35.65173 -120.68029 33468 ft 479 kts 321°
2026-04-21 02:00 35.68004 -120.70216 33029 ft 479 kts 321°
2026-04-21 02:00 35.70808 -120.72402 32444 ft 478 kts 321°
2026-04-21 02:01 35.73575 -120.74573 31735 ft 477 kts 321°
2026-04-21 02:01 35.76360 -120.76767 31053 ft 476 kts 321°
2026-04-21 02:01 35.79143 -120.78965 30385 ft 474 kts 321°
2026-04-21 02:01 35.81918 -120.81157 29798 ft 471 kts 321°
2026-04-21 02:02 35.84652 -120.83316 29272 ft 464 kts 321°
2026-04-21 02:02 35.87352 -120.85448 28788 ft 457 kts 321°
2026-04-21 02:02 35.90010 -120.87550 28319 ft 451 kts 321°
2026-04-21 02:02 35.92630 -120.89626 27900 ft 445 kts 321°
2026-04-21 02:03 35.95221 -120.91681 27458 ft 439 kts 321°
2026-04-21 02:03 35.97736 -120.93676 27056 ft 433 kts 321°
2026-04-21 02:03 36.00248 -120.95669 26667 ft 428 kts 320°
2026-04-21 02:03 36.02690 -120.97736 26084 ft 425 kts 317°
2026-04-21 02:04 36.05038 -120.99936 25620 ft 421 kts 315°
2026-04-21 02:04 36.07328 -121.02160 25178 ft 417 kts 315°
2026-04-21 02:04 36.09599 -121.04378 24779 ft 413 kts 315°
2026-04-21 02:04 36.11853 -121.06566 24378 ft 410 kts 315°
2026-04-21 02:05 36.14068 -121.08700 23976 ft 408 kts 315°
2026-04-21 02:05 36.16294 -121.10832 23593 ft 405 kts 315°
2026-04-21 02:05 36.18530 -121.12969 23116 ft 403 kts 315°
2026-04-21 02:05 36.20709 -121.15048 22715 ft 399 kts 315°
2026-04-21 02:06 36.22895 -121.17134 22300 ft 395 kts 315°
2026-04-21 02:06 36.25057 -121.19200 21916 ft 392 kts 315°
2026-04-21 02:06 36.27212 -121.21261 21533 ft 389 kts 315°
2026-04-21 02:06 36.29347 -121.23305 21145 ft 386 kts 315°
2026-04-21 02:07 36.31461 -121.25331 20795 ft 383 kts 315°
2026-04-21 02:07 36.33561 -121.27343 20398 ft 381 kts 314°
2026-04-21 02:07 36.35652 -121.29348 20009 ft 379 kts 314°
2026-04-21 02:07 36.37699 -121.31319 19530 ft 381 kts 314°
2026-04-21 02:08 36.39808 -121.33351 19136 ft 380 kts 314°
2026-04-21 02:08 36.41917 -121.35385 18759 ft 378 kts 314°
2026-04-21 02:08 36.43958 -121.37354 18373 ft 377 kts 314°
2026-04-21 02:08 36.46024 -121.39348 17972 ft 376 kts 314°
2026-04-21 02:09 36.48084 -121.41337 17592 ft 373 kts 315°
2026-04-21 02:09 36.50135 -121.43294 17203 ft 372 kts 317°
2026-04-21 02:09 36.52335 -121.44999 16834 ft 374 kts 324°
2026-04-21 02:09 36.54626 -121.46525 16473 ft 372 kts 326°
2026-04-21 02:10 36.56893 -121.47983 16110 ft 370 kts 327°
2026-04-21 02:10 36.59166 -121.49456 15752 ft 367 kts 326°
2026-04-21 02:10 36.61412 -121.50939 15406 ft 364 kts 326°
2026-04-21 02:10 36.63636 -121.52431 15105 ft 361 kts 326°
2026-04-21 02:11 36.65834 -121.53920 14757 ft 359 kts 326°
2026-04-21 02:11 36.68016 -121.55406 14415 ft 357 kts 326°
2026-04-21 02:11 36.70191 -121.56891 14058 ft 355 kts 326°
2026-04-21 02:11 36.72349 -121.58365 13723 ft 353 kts 327°
2026-04-21 02:12 36.74496 -121.59831 13343 ft 351 kts 327°
2026-04-21 02:12 36.76638 -121.61294 12978 ft 348 kts 327°
2026-04-21 02:12 36.78744 -121.62734 12647 ft 345 kts 327°
2026-04-21 02:12 36.80810 -121.64146 12321 ft 342 kts 327°
2026-04-21 02:13 36.82895 -121.65573 12006 ft 340 kts 327°
2026-04-21 02:13 36.84958 -121.66986 11682 ft 338 kts 327°
2026-04-21 02:13 36.87011 -121.68394 11347 ft 336 kts 327°
2026-04-21 02:13 36.89056 -121.69797 11022 ft 333 kts 327°
2026-04-21 02:14 36.91074 -121.71182 10694 ft 331 kts 327°
2026-04-21 02:14 36.93096 -121.72571 10373 ft 329 kts 326°
2026-04-21 02:14 36.95089 -121.73941 10165 ft 323 kts 326°
2026-04-21 02:14 36.97013 -121.75263 10001 ft 316 kts 326°
2026-04-21 02:15 36.98904 -121.76563 9947 ft 305 kts 326°
2026-04-21 02:15 37.00788 -121.77862 9440 ft 310 kts 326°
2026-04-21 02:15 37.02671 -121.79161 9107 ft 310 kts 326°
2026-04-21 02:15 37.04555 -121.80457 8831 ft 309 kts 325°
2026-04-21 02:16 37.06454 -121.81762 8485 ft 312 kts 325°
2026-04-21 02:16 37.08358 -121.83070 8127 ft 312 kts 325°
2026-04-21 02:16 37.10234 -121.84359 7833 ft 312 kts 325°
2026-04-21 02:16 37.12135 -121.85669 7474 ft 312 kts 326°
2026-04-21 02:17 37.14036 -121.86969 7167 ft 310 kts 326°
2026-04-21 02:17 37.15925 -121.88260 6843 ft 309 kts 327°
2026-04-21 02:17 37.17813 -121.89552 6563 ft 311 kts 327°
2026-04-21 02:17 37.19726 -121.90862 6133 ft 314 kts 326°
2026-04-21 02:18 37.21628 -121.92164 5826 ft 308 kts 327°
2026-04-21 02:18 37.23500 -121.93447 5535 ft 306 kts 327°
2026-04-21 02:18 37.25364 -121.94725 5206 ft 304 kts 327°
2026-04-21 02:18 37.27187 -121.95976 4913 ft 300 kts 327°
2026-04-21 02:19 37.29004 -121.97224 4622 ft 297 kts 327°
2026-04-21 02:19 37.30684 -121.98669 4302 ft 290 kts 315°
2026-04-21 02:19 37.32161 -122.00320 4015 ft 278 kts 312°
2026-04-21 02:19 37.33561 -122.01943 3693 ft 269 kts 313°
2026-04-21 02:20 37.34928 -122.03498 3393 ft 262 kts 313°
2026-04-21 02:20 37.36272 -122.05000 3111 ft 254 kts 313°
2026-04-21 02:20 37.37678 -122.06213 3037 ft 241 kts 335°
2026-04-21 02:20 37.39297 -122.06459 2654 ft 239 kts
2026-04-21 02:21 37.40755 -122.05693 2435 ft 216 kts 39°
2026-04-21 02:21 37.41727 -122.04425 2271 ft 188 kts 59°
2026-04-21 02:21 37.42265 -122.03103 2148 ft 156 kts 80°
2026-04-21 02:21 37.42453 -122.01816 1815 ft 143 kts 95°
2026-04-21 02:22 37.42368 -122.00556 1526 ft 148 kts 111°
2026-04-21 02:22 37.42026 -121.99396 1359 ft 137 kts 126°
2026-04-21 02:22 37.41466 -121.98481 1212 ft 134 kts 137°
2026-04-21 02:22 37.40787 -121.97640 1035 ft 139 kts 141°
2026-04-21 02:23 37.40077 -121.96820 881 ft 136 kts 143°
2026-04-21 02:23 37.39368 -121.96042 647 ft 134 kts 142°
2026-04-21 02:23 37.38679 -121.95295 461 ft 130 kts 141°
2026-04-21 02:23 37.38008 -121.94560 274 ft 126 kts 141°
2026-04-21 02:24 37.37350 -121.93852 107 ft 125 kts 138°
2026-04-21 02:24 37.36718 -121.93158 46 ft 112 kts 138°
2026-04-21 02:24 37.36241 -121.92639 46 ft 68 kts 139°
2026-04-21 02:24 37.36093 -121.92415 53 ft 12 kts 76°
2026-04-21 02:25 37.36121 -121.92356 53 ft 9 kts 47°